Theta_e
321 322 324 325 326 327 326 325 325 325 326 325 323 324 325 326 325 326 331 329 321 326 331 327 327 326 326 326 323 322 323 322 321 322 322 323 325 326 327 327 327 327 327 327 327 327 327 328 328 328 329 329 328 327 326 324 325 325 324 323 324 324 323 323 324 325 325 325 325 325 325 325 325 324 322 321 321 320 320 321 321 321 321 321 320 319
321 322 323 323 324 325 326 326 325 326 326 324 324 324 324 324 324 324 328 329 322 324 331 330 328 327 325 325 322 320 323 322 320 321 322 323 324 325 326 326 327 327 327 327 327 327 327 327 327 328 328 328 329 329 327 325 326 327 326 325 326 325 324 324 324 324 324 325 325 326 326 326 326 326 326 325 324 322 321 320 320 320 320 320 320 320
323 323 322 321 322 324 326 326 325 326 326 324 324 324 324 323 323 323 325 327 323 325 331 331 329 327 326 326 323 320 321 322 322 322 323 324 324 324 325 326 326 326 327 327 327 327 327 327 327 327 327 327 328 329 329 327 327 327 327 327 326 326 325 325 325 324 325 325 326 326 326 326 325 325 326 326 326 325 324 323 322 321 321 320 320 320
323 322 321 320 321 323 325 327 326 326 326 326 325 324 325 324 323 324 323 324 325 326 330 332 328 325 325 326 324 322 321 321 322 323 324 324 324 324 325 326 326 326 326 327 327 326 326 326 327 327 327 327 328 329 329 329 328 327 328 328 328 327 327 326 326 325 326 325 325 326 325 325 325 326 326 326 326 326 326 325 324 323 322 322 321 321
320 320 320 320 320 322 324 326 326 327 327 327 326 326 325 324 324 325 324 323 324 324 325 326 325 323 322 324 323 322 321 321 322 322 323 324 324 325 325 325 326 325 326 326 327 327 326 326 325 325 326 327 327 328 329 329 329 329 328 328 328 328 327 326 326 325 325 325 324 324 325 326 326 325 325 325 325 325 325 325 325 324 324 323 323 322
319 318 320 321 321 321 322 324 325 327 328 327 327 326 325 325 323 323 324 324 324 325 323 324 325 325 323 322 321 321 321 320 320 321 321 323 324 324 324 325 325 326 326 326 326 326 326 325 323 323 325 326 327 327 329 329 329 329 329 329 329 328 326 325 325 325 325 325 325 324 325 325 326 325 324 323 323 323 323 323 324 325 324 324 324 323
320 319 320 321 321 322 322 322 323 324 327 327 326 325 325 325 324 323 323 323 325 326 323 323 325 326 325 324 321 320 320 320 319 320 320 320 322 322 322 323 323 324 325 326 326 326 326 324 322 322 324 326 327 327 327 328 329 329 329 328 328 327 325 324 324 324 324 325 325 325 325 325 325 325 323 322 322 323 323 323 324 324 324 324 324 324
321 320 321 322 321 322 322 322 321 323 325 325 325 326 326 326 325 324 323 323 324 325 323 321 323 326 325 325 323 321 321 320 319 319 319 318 320 320 321 321 321 321 322 322 323 323 323 322 320 321 324 324 325 326 326 327 328 328 328 328 328 327 326 325 325 324 323 324 325 325 325 325 325 325 324 322 322 323 323 324 323 324 324 324 324 324
320 321 321 321 321 321 321 321 321 322 323 324 326 328 327 325 326 325 324 324 324 325 326 322 322 326 325 324 324 323 321 321 320 320 319 317 318 319 319 320 320 319 319 319 319 319 318 317 317 320 322 323 324 325 325 326 327 327 327 327 327 326 325 324 324 323 323 323 324 326 325 325 325 325 324 324 323 323 324 324 323 323 324 324 324 324
319 320 320 321 322 321 320 319 320 322 322 323 327 327 326 325 326 326 326 326 325 326 328 325 322 325 327 325 324 322 322 322 321 320 319 317 317 319 319 319 320 319 319 319 318 318 317 317 319 320 322 323 323 324 324 325 325 325 326 326 325 325 324 323 323 323 323 323 324 324 325 325 325 325 325 324 323 323 324 324 324 323 324 324 324 324
317 317 318 320 321 320 319 318 318 320 320 322 325 325 325 325 324 324 324 325 327 327 327 326 323 324 327 327 324 323 322 321 321 320 320 318 317 318 319 320 320 320 320 319 319 319 319 319 319 320 321 322 322 323 324 324 324 324 324 324 324 323 323 323 323 322 322 322 323 323 323 323 323 323 323 323 322 322 323 324 324 323 324 324 325 324
316 316 317 319 319 319 320 319 317 318 319 323 324 323 324 323 322 323 323 323 327 328 326 325 324 325 327 328 325 323 322 321 321 321 321 320 317 317 320 320 320 320 320 320 320 320 320 320 320 320 320 320 320 322 323 324 324 323 324 324 324 323 323 323 322 322 322 322 322 321 321 321 321 321 320 320 321 321 323 323 324 324 324 324 324 324
317 316 317 318 318 318 320 320 320 319 320 322 323 323 324 323 323 324 323 324 326 326 326 327 325 325 326 325 324 325 324 322 320 319 320 319 317 317 319 320 320 320 320 320 321 320 320 321 320 320 320 320 320 321 322 323 324 323 323 323 323 323 323 323 322 322 321 321 321 320 320 320 320 320 319 320 320 321 322 323 324 324 324 324 324 324
318 316 316 317 317 318 319 320 321 320 320 321 321 322 323 323 324 324 324 325 324 324 325 326 325 325 326 324 323 324 323 320 317 317 319 319 318 318 319 320 320 320 320 320 321 320 320 320 320 320 321 320 320 321 322 323 323 323 323 323 323 323 323 323 322 321 320 320 320 320 319 319 319 320 320 319 320 320 322 323 324 324 323 323 323 323
318 316 316 317 317 319 319 319 320 320 321 321 320 321 322 322 323 324 324 324 323 322 323 323 324 325 325 324 324 323 321 318 317 318 319 320 320 320 319 319 320 320 320 320 320 320 320 320 320 320 320 320 320 320 321 322 323 323 323 323 323 323 323 323 321 320 320 320 320 319 319 319 319 320 320 320 320 320 321 322 323 323 323 323 323 323
317 316 316 316 316 319 319 318 319 320 321 320 319 319 320 321 321 322 323 323 322 322 321 322 325 326 324 321 323 326 323 318 318 318 318 319 320 320 319 318 319 319 320 320 320 320 320 320 320 320 320 320 319 320 320 321 321 322 322 323 323 323 322 321 319 319 319 320 320 320 319 319 319 320 320 319 319 319 320 321 322 322 322 323 323 323
317 317 317 317 317 317 318 318 318 319 321 321 319 319 320 319 320 322 322 321 322 323 322 323 325 324 322 320 321 326 324 320 318 318 317 317 318 319 319 318 319 319 319 320 320 320 320 319 320 320 320 320 320 320 321 321 321 321 322 322 322 321 319 318 318 318 319 320 320 320 319 318 318 318 318 317 317 317 318 320 321 322 323 322 322 320
316 316 316 317 318 317 316 317 318 318 320 322 321 321 320 319 319 320 322 322 322 323 323 323 323 321 321 322 321 323 323 320 319 318 317 317 317 318 318 319 319 319 319 320 319 320 320 320 320 320 319 320 320 320 321 321 321 321 322 321 320 318 318 318 318 319 320 320 320 318 317 317 316 316 316 315 316 316 317 318 320 321 321 320 319 319
314 314 315 317 318 317 315 317 318 317 317 319 320 321 321 321 320 319 320 323 323 323 322 321 321 320 320 321 320 322 323 321 319 318 318 318 317 317 318 319 319 319 319 319 319 319 320 320 320 320 320 319 320 320 321 321 321 321 321 319 318 317 318 318 319 320 321 319 318 316 316 315 315 315 315 315 315 316 316 317 317 318 318 318 318 319
314 313 314 316 318 317 316 317 318 318 316 315 317 320 320 321 322 321 320 322 323 323 323 322 322 320 320 319 318 321 322 321 320 318 318 318 316 316 317 318 319 319 319 319 319 319 320 320 320 320 320 320 319 320 320 320 320 319 319 318 317 318 318 319 320 320 320 319 316 316 316 315 315 315 315 315 315 316 316 316 316 316 317 317 317 317
314 313 314 316 317 317 316 317 317 318 318 316 318 319 319 320 321 321 321 321 322 322 323 323 322 321 321 320 319 319 320 320 322 320 318 317 316 316 317 318 319 319 319 319 319 320 320 320 320 320 320 320 320 320 319 319 319 318 318 318 318 318 318 319 320 320 319 318 317 317 316 316 316 316 316 316 316 316 316 316 316 316 316 316 316 316
313 313 314 315 315 315 317 317 317 318 318 318 318 318 318 319 320 322 323 322 322 322 322 322 321 322 324 322 318 318 319 320 320 320 318 316 315 316 317 317 318 319 319 320 319 320 320 320 320 320 320 320 320 319 318 318 318 318 318 319 318 318 318 318 319 320 319 318 317 317 317 317 317 317 317 316 316 316 316 316 316 315 315 315 315 315
312 313 314 314 314 314 316 317 314 314 316 318 318 318 317 318 319 321 321 321 321 322 322 322 321 323 326 325 320 319 319 317 316 316 317 316 315 317 318 318 318 319 319 320 320 320 320 320 321 320 320 320 319 318 318 318 318 318 319 319 319 318 317 318 319 320 319 318 317 317 317 317 317 316 316 316 316 316 316 315 315 315 315 315 315 315
312 313 313 313 313 313 315 315 312 309 310 314 317 317 317 318 318 318 319 319 320 321 322 323 322 322 324 326 325 321 318 315 314 314 315 314 315 317 318 318 318 319 319 320 320 320 320 320 320 320 319 319 318 318 318 318 318 318 319 319 319 318 317 317 318 318 317 317 317 317 317 316 316 316 316 316 316 316 316 316 315 315 315 315 315 314
312 312 313 313 313 312 312 314 313 310 310 312 316 317 317 318 318 318 319 318 319 319 320 321 321 321 322 327 326 322 319 317 315 313 313 314 314 316 317 318 319 319 319 320 320 320 320 321 320 320 319 318 318 317 317 318 317 318 319 319 318 318 317 316 317 317 317 317 317 317 316 316 316 316 316 316 316 316 315 316 315 315 315 315 315 315
309 312 313 313 313 312 310 311 311 312 312 314 316 316 316 317 318 318 319 318 319 319 319 319 319 319 321 324 323 321 321 321 316 312 312 314 315 315 316 317 318 319 319 319 320 320 320 320 320 320 319 318 318 318 318 319 318 318 318 319 318 318 317 317 317 317 317 317 317 316 317 317 317 317 316 316 316 316 315 315 315 315 315 315 315 315
308 310 311 311 311 311 310 310 310 310 311 313 316 316 315 316 316 317 319 319 319 320 319 319 319 319 319 320 319 321 324 325 322 316 311 311 314 316 316 317 317 318 319 319 319 320 320 320 320 320 320 319 318 318 319 318 318 318 318 318 318 318 318 317 317 317 317 316 316 317 317 317 317 317 317 317 317 316 316 315 315 314 314 314 314 314
308 309 308 308 309 309 309 308 309 309 309 310 313 314 315 316 316 317 318 319 319 320 320 319 319 320 319 317 317 319 322 323 323 319 312 311 314 316 316 317 318 318 319 319 319 320 319 320 320 320 320 320 319 318 318 318 318 318 318 318 319 318 318 317 316 316 316 316 317 317 317 317 317 317 317 317 317 316 316 315 315 314 314 313 313 313
308 308 307 308 308 308 308 308 308 308 308 309 310 311 312 314 315 316 317 317 318 320 320 320 320 320 319 318 318 318 318 319 318 317 315 315 316 316 315 315 316 317 319 319 319 319 319 319 320 320 320 320 319 319 318 318 317 317 318 318 318 318 317 316 316 316 316 317 317 317 317 317 317 317 317 317 316 316 316 315 315 315 314 313 313 312
307 307 307 307 307 307 307 307 307 308 309 309 309 310 311 312 313 314 315 316 317 318 318 319 320 319 319 319 318 317 317 316 316 316 315 315 316 316 315 314 314 317 318 319 319 319 319 319 319 319 319 319 319 319 318 318 317 317 318 318 318 317 316 316 316 316 317 317 317 317 317 317 316 316 316 316 315 315 315 315 315 315 315 315 315 314
307 307 307 307 307 307 307 308 308 308 309 309 309 310 311 311 312 312 313 314 315 316 316 317 318 318 318 318 318 316 316 315 316 315 313 314 316 316 315 315 316 317 318 318 319 319 319 319 319 319 319 320 319 319 319 318 317 317 317 317 317 316 316 316 316 317 317 317 317 316 316 316 316 315 315 315 314 314 315 315 315 315 316 316 316 315
307 306 307 308 307 307 307 308 308 308 308 308 308 308 309 310 311 311 312 313 314 315 315 316 317 317 317 317 316 316 316 316 317 315 313 313 315 315 315 316 317 318 318 319 319 319 319 319 319 319 319 319 318 318 318 318 318 317 317 317 317 316 316 316 317 317 317 316 316 316 316 315 314 313 314 314 314 314 314 314 315 315 315 315 315 315
306 305 307 307 307 306 306 307 307 307 307 306 306 307 307 308 309 310 311 312 313 314 315 315 316 316 316 317 317 316 317 317 316 315 314 314 314 315 315 316 316 317 317 318 318 318 318 318 319 319 319 318 318 318 318 318 317 317 317 317 317 316 316 316 317 317 316 316 316 316 315 313 312 312 313 313 313 313 313 314 314 315 315 315 314 314
304 304 306 307 306 306 306 306 306 306 306 306 306 306 307 306 308 311 312 312 312 312 313 314 314 315 316 316 316 316 316 316 316 316 315 315 315 314 314 315 316 316 317 317 317 318 318 318 318 318 318 318 318 318 318 318 317 317 316 317 317 316 316 317 317 316 316 316 316 315 313 312 311 312 312 312 312 313 313 314 314 314 314 314 313 313
305 304 305 306 306 306 306 306 305 305 306 307 307 308 307 306 309 312 312 312 312 312 312 313 313 314 315 315 315 315 315 316 316 316 315 315 315 315 315 315 315 315 316 317 317 317 318 318 318 318 318 318 318 318 318 318 317 316 316 316 317 316 316 317 316 316 316 316 315 314 313 312 311 311 311 312 312 313 314 314 314 313 313 312 311 311
305 305 305 306 306 306 306 306 305 306 307 308 310 310 309 308 310 312 311 310 310 310 311 311 312 312 313 314 314 315 315 315 315 316 316 316 316 315 315 315 315 315 316 316 316 316 316 317 317 317 318 318 318 318 318 317 317 316 316 316 316 316 316 317 316 316 316 316 315 314 313 311 309 309 311 311 312 313 313 313 313 312 311 310 309 309
304 305 305 306 306 306 306 305 305 306 306 307 308 308 308 308 308 309 309 308 309 311 311 312 312 312 312 312 313 314 315 315 315 315 315 316 315 315 315 315 315 315 315 315 316 316 316 316 317 317 318 318 318 317 317 317 317 316 316 316 316 316 316 316 316 316 316 315 315 314 312 310 308 309 311 312 312 313 313 312 311 310 309 308 308 307
304 304 305 306 306 306 306 306 306 305 305 305 306 306 306 306 306 309 309 309 311 313 313 313 313 312 311 312 312 312 314 315 315 314 314 314 315 314 315 315 315 315 315 315 315 316 316 317 317 317 317 318 318 317 317 317 316 316 316 316 316 316 316 316 316 316 316 315 314 313 311 309 309 310 311 312 312 312 311 311 310 309 308 307 306 306
304 304 305 306 306 306 305 306 306 305 305 305 305 306 305 305 307 311 312 311 312 312 311 311 312 312 311 311 311 311 313 314 314 314 314 314 314 314 314 314 315 315 315 315 315 316 316 316 317 317 317 317 318 318 317 317 317 316 316 316 316 316 316 316 316 316 316 315 314 312 310 310 310 310 311 311 311 311 310 310 308 307 306 305 304 303
304 305 305 306 306 306 305 305 305 305 306 307 307 306 305 305 309 312 312 312 312 311 310 310 312 311 311 311 311 311 313 313 313 313 313 314 314 314 314 314 315 315 315 315 316 316 316 316 317 317 317 317 318 318 318 317 317 317 315 315 316 316 316 316 316 316 316 315 313 311 310 310 310 310 309 310 309 309 309 308 307 306 304 303 302 301
305 305 305 306 306 306 305 305 305 305 306 307 307 306 306 308 311 311 310 310 309 309 309 310 311 311 311 310 310 311 312 312 312 312 313 313 313 313 314 314 314 315 315 315 316 316 316 316 317 317 317 317 317 317 317 317 317 317 315 314 314 315 316 316 316 316 316 314 312 311 310 310 309 309 308 308 308 308 308 307 306 304 302 301 300 299
306 306 306 306 306 306 305 305 306 305 306 305 304 305 308 310 310 310 309 307 308 308 308 309 310 310 311 310 310 311 312 312 313 313 313 313 313 313 313 314 314 314 315 315 315 316 316 316 316 317 317 317 317 317 317 317 316 316 315 313 313 314 315 316 316 316 315 313 311 311 310 309 308 307 307 307 307 307 307 305 304 302 300 299 299 299
306 306 306 307 307 306 306 306 306 306 306 305 305 306 309 309 307 307 306 307 308 308 308 309 310 311 311 311 311 312 312 312 313 313 313 313 313 313 314 314 314 314 315 315 315 316 316 316 316 317 317 317 317 317 316 316 315 315 314 313 313 314 315 315 316 315 314 312 312 311 310 308 307 306 306 305 305 305 304 303 302 300 299 298 298 299
306 305 305 306 306 306 306 306 306 307 306 305 305 307 309 308 306 306 306 306 307 308 308 309 310 311 312 312 312 312 312 312 312 312 313 313 312 312 313 313 313 314 314 314 315 315 316 316 316 316 316 316 316 315 315 314 314 314 314 314 314 314 315 315 315 315 314 313 312 311 309 308 307 306 305 304 303 303 302 301 300 299 298 298 299 299
305 305 305 305 306 307 306 306 306 306 305 305 305 305 306 306 307 306 306 306 307 308 308 308 309 310 310 311 312 312 312 312 312 312 313 312 311 311 311 312 312 312 313 313 314 314 315 315 316 316 316 315 315 314 314 314 314 314 314 314 314 314 314 315 315 314 314 313 311 309 308 309 308 306 304 302 301 301 301 300 299 298 298 299 299 300
304 304 304 305 306 306 306 305 305 306 305 304 303 303 303 304 304 303 303 303 305 306 306 305 306 307 307 307 308 309 310 311 312 312 312 311 311 310 310 310 311 311 311 312 313 314 314 315 315 315 315 315 314 314 314 314 314 314 314 314 313 313 313 314 315 315 314 311 309 308 309 309 306 303 301 299 299 299 299 298 298 298 299 299 299 299
304 303 303 304 304 305 306 306 306 305 304 301 299 301 302 302 301 299 298 299 301 302 303 303 304 304 304 305 306 307 308 308 308 309 309 309 309 309 309 309 309 309 310 311 311 312 313 314 314 314 314 314 314 314 314 314 314 314 314 314 313 312 312 314 314 313 311 310 310 309 308 306 303 300 299 298 298 298 297 298 298 299 299 298 298 297
303 302 303 304 303 303 306 306 304 301 300 298 296 295 296 297 298 297 297 297 298 299 301 302 302 303 303 303 304 304 305 305 305 305 306 306 306 307 307 307 307 308 309 310 310 311 311 311 311 312 312 312 312 313 313 313 313 313 313 313 312 312 312 312 312 311 311 311 309 306 303 300 299 299 298 297 297 297 297 298 298 298 297 297 296 296
300 301 303 303 301 302 304 305 302 301 302 299 294 290 290 293 295 296 296 296 297 298 299 300 300 300 300 300 301 302 302 302 302 303 304 304 304 304 305 305 306 306 308 308 309 309 309 309 308 308 309 309 309 309 309 310 310 310 310 310 310 310 310 310 309 309 308 306 303 300 299 298 298 298 298 297 297 297 298 298 297 296 295 295 295 295
300 302 303 303 302 303 303 301 299 302 304 298 291 288 290 291 292 294 295 295 295 295 296 297 297 297 297 297 298 299 299 299 300 301 301 301 301 301 302 302 302 303 304 305 306 306 306 306 305 305 305 305 305 305 305 306 306 306 306 306 306 307 307 307 306 305 303 300 299 298 298 298 298 298 297 297 296 297 296 296 295 294 294 294 295 295
299 300 301 302 302 301 298 294 292 296 298 293 288 288 290 290 290 291 292 291 291 291 292 294 295 296 295 295 296 296 297 297 297 298 298 298 297 297 298 298 299 299 299 300 301 302 302 302 302 302 302 301 301 300 301 301 302 302 302 302 302 302 302 303 302 300 299 298 298 298 298 297 297 297 296 295 295 295 294 294 294 294 294 294 294 294
Wind_Speed
12 5 5 9 9 10 12 13 12 5 3 5 6 7 7 7 6 4 4 6 3 4 7 9 11 9 11 14 13 19 21 16 17 21 23 25 28 31 32 32 32 33 33 28 26 27 28 30 31 30 30 30 31 32 32 31 30 29 29 30 30 29 29 31 32 32 32 32 31 31 32 31 31 31 32 32 32 32 32 31 30 31 30 29 29 28
11 7 9 15 15 12 11 12 11 8 6 3 3 5 7 7 6 4 4 6 1 3 5 5 8 10 10 13 14 15 15 14 18 21 25 28 28 31 32 34 35 35 34 31 30 30 29 29 29 29 31 32 33 32 33 33 31 30 31 32 31 30 31 32 33 33 33 33 32 31 31 30 29 30 31 32 32 32 33 33 33 33 33 32 31 31
7 9 15 18 14 10 8 10 13 14 12 5 3 4 5 3 3 4 3 4 0 3 5 4 8 11 8 10 14 14 13 17 25 27 30 32 30 31 35 37 39 38 37 36 35 35 33 32 30 29 30 32 33 34 34 34 33 33 33 33 33 33 33 34 34 35 34 33 32 32 31 30 30 30 31 32 32 33 33 33 34 34 34 33 33 33
8 11 17 14 7 8 9 10 12 12 10 9 7 6 6 4 2 5 4 2 3 4 4 4 7 9 7 8 11 19 20 19 26 31 33 35 33 34 37 39 39 39 39 39 39 39 38 36 35 34 33 32 33 34 35 36 36 36 36 36 36 35 35 35 35 36 35 35 34 34 34 33 33 33 33 34 35 35 35 34 34 34 34 33 33 33
12 10 7 8 9 12 13 11 10 9 7 10 12 10 10 6 6 7 3 1 3 4 3 3 7 9 9 11 11 18 21 18 22 27 30 35 38 37 39 41 41 40 40 41 42 42 40 38 37 37 36 34 34 35 36 38 38 38 38 38 38 37 36 36 35 36 37 37 37 37 37 37 37 36 36 37 36 34 33 34 34 33 33 34 33 32
15 12 7 10 13 14 14 10 11 10 7 10 12 14 15 11 8 6 2 1 4 6 5 4 7 11 9 13 15 13 16 17 18 20 25 34 38 39 39 41 44 43 43 43 43 43 41 41 40 39 37 36 37 38 38 38 39 39 40 40 39 38 37 36 36 37 39 40 40 40 40 39 38 37 36 36 34 32 30 30 30 31 33 33 32 32
8 11 9 12 13 13 13 11 13 12 8 10 10 13 15 11 9 7 6 5 5 7 4 9 8 12 5 9 13 12 15 21 17 14 22 31 35 38 40 42 44 44 44 45 45 45 45 45 44 42 40 38 39 40 39 39 40 41 41 41 41 40 39 39 39 39 40 41 41 42 42 41 40 39 38 35 33 32 30 29 29 30 31 32 31 31
5 11 11 12 13 11 12 12 14 13 10 10 6 8 11 11 12 11 8 7 8 6 3 7 10 11 10 7 7 10 13 18 18 14 16 24 32 37 40 43 45 46 47 49 49 49 50 49 47 45 43 42 42 41 40 40 41 42 42 42 42 43 43 43 42 41 40 41 41 42 42 42 42 41 39 37 35 35 33 32 31 30 31 31 32 32
5 11 13 13 12 9 10 12 11 12 12 10 4 7 9 11 12 11 9 8 9 7 6 8 8 7 13 8 6 8 11 16 20 17 14 18 29 35 39 43 45 47 49 50 52 52 52 51 48 47 45 44 44 43 42 42 43 44 44 44 45 46 46 44 42 41 41 41 41 42 43 43 43 42 41 39 39 38 37 35 33 32 31 31 32 33
3 7 11 13 10 8 11 10 9 13 13 6 7 5 3 4 6 7 8 7 8 9 10 12 10 7 13 8 7 7 11 17 18 15 13 17 27 34 38 43 44 45 46 47 49 51 51 49 47 46 47 46 46 44 44 44 45 46 46 46 47 47 45 43 42 41 41 41 41 42 43 43 43 43 42 42 42 41 40 39 36 34 33 32 32 32
6 4 3 6 8 9 10 9 11 16 12 8 9 4 1 2 0 3 4 4 6 8 10 14 14 11 13 10 8 9 11 14 13 13 12 12 22 31 36 40 42 43 44 44 46 47 48 47 46 47 48 48 48 46 46 46 46 47 48 48 48 46 45 44 43 42 41 41 41 42 42 42 42 42 42 42 43 42 42 41 39 37 35 33 33 32
9 6 2 3 8 9 6 6 10 12 9 8 6 5 4 1 1 2 2 2 5 8 10 14 15 13 13 10 6 8 12 13 12 12 12 8 16 27 33 37 40 41 43 44 45 46 46 46 46 47 49 50 50 49 49 48 48 48 48 49 49 47 45 44 44 43 43 42 43 42 41 41 41 40 40 40 41 41 40 40 39 38 37 36 34 33
8 9 5 1 4 8 7 4 5 5 6 6 4 5 5 4 3 5 6 5 7 11 8 10 13 11 14 14 7 6 7 9 11 13 14 13 17 25 31 34 37 40 42 43 45 46 47 47 47 47 48 48 49 50 50 50 49 49 49 49 50 48 45 44 45 43 42 42 41 38 37 37 37 37 37 38 39 39 39 39 38 38 37 36 36 35
6 10 8 2 2 8 10 6 5 4 6 9 8 8 8 6 5 6 7 6 8 12 6 6 10 6 9 13 13 14 10 11 16 19 22 23 22 25 29 33 36 39 42 44 45 46 47 47 47 47 47 47 48 48 49 50 50 50 49 50 51 50 47 46 45 43 41 37 35 33 33 34 34 35 35 36 37 38 38 38 37 37 37 37 37 36
10 10 9 9 6 12 14 11 9 6 6 10 9 8 9 7 5 5 6 7 8 8 4 4 6 6 7 6 6 12 15 19 23 23 25 28 28 29 29 31 36 40 41 43 43 44 44 44 44 45 45 46 47 48 48 49 49 49 49 49 50 50 48 47 45 43 40 35 32 31 32 33 33 33 34 34 36 36 36 36 36 36 37 37 37 35
12 10 6 13 13 15 14 12 9 6 4 7 5 5 8 8 7 5 5 6 5 5 3 3 4 4 5 9 6 5 9 18 23 22 24 27 30 33 31 31 37 40 42 42 42 43 42 41 42 43 42 43 45 47 48 48 47 46 46 46 47 47 45 44 41 40 37 32 30 30 31 32 33 33 33 33 34 35 35 35 35 36 36 36 35 33
8 7 3 8 10 13 16 14 11 9 5 3 5 7 7 6 7 7 9 5 3 8 5 5 7 5 3 13 12 7 5 11 18 19 21 26 31 33 33 36 38 40 43 45 44 44 44 42 41 40 40 41 44 47 46 44 42 42 42 42 42 41 39 38 35 33 31 29 29 30 31 32 32 33 33 33 34 34 33 33 34 35 35 35 34 34
4 6 3 4 6 12 17 16 11 11 10 4 5 10 6 1 1 3 7 6 8 12 6 7 12 10 6 9 8 7 8 11 14 14 16 22 28 30 34 40 41 41 44 45 46 46 45 45 43 42 41 40 44 47 44 40 38 38 38 38 37 35 34 32 30 28 28 28 29 29 30 31 31 31 32 32 33 33 33 33 33 34 35 35 35 34
3 6 6 6 9 8 8 10 6 9 12 5 3 7 5 2 3 3 4 5 9 11 7 10 14 11 9 8 5 6 10 11 12 13 14 17 21 25 32 40 42 43 42 41 43 45 45 47 46 46 44 42 44 48 44 39 36 36 35 33 33 32 30 28 26 25 26 27 28 28 28 29 29 30 30 31 31 32 33 32 33 34 35 35 35 35
3 4 7 5 7 5 5 6 6 8 9 3 1 4 3 3 5 6 5 4 8 10 9 10 12 9 8 8 10 13 12 9 9 11 13 15 20 27 32 37 42 46 43 39 41 44 45 47 46 47 47 44 45 48 43 37 34 32 29 30 31 30 28 27 26 27 27 28 28 27 27 28 29 29 30 30 31 32 33 33 34 35 35 35 34 34
3 4 6 3 1 3 3 6 11 12 10 5 4 7 6 4 3 4 5 5 6 8 8 8 9 8 5 6 12 17 13 9 11 12 13 15 23 31 36 39 41 43 44 42 43 44 45 46 45 47 48 46 47 47 40 32 29 27 27 29 30 28 26 26 27 28 29 29 29 29 28 27 28 28 29 30 31 32 32 33 34 33 33 32 31 31
4 3 8 7 4 4 5 9 13 13 12 10 8 10 11 9 6 5 6 6 5 7 7 9 10 8 4 5 10 14 13 10 12 14 12 16 27 34 37 40 40 41 44 44 44 43 44 45 45 47 48 47 46 44 36 28 26 27 27 28 28 26 25 26 28 29 29 30 30 30 28 26 26 26 27 28 29 30 30 31 31 30 30 29 28 27
8 3 7 10 8 8 8 6 5 2 4 8 10 12 12 10 9 9 9 7 7 8 7 9 11 6 4 5 7 9 11 10 13 16 13 17 28 35 37 38 38 40 43 43 42 42 43 44 46 47 47 46 44 39 33 29 27 28 28 28 28 27 26 26 28 29 29 30 30 28 25 24 24 24 25 25 25 26 27 27 27 27 26 26 25 25
8 3 6 9 8 8 9 6 2 3 2 4 9 11 11 11 13 13 12 9 9 9 7 8 10 6 4 6 7 8 10 8 10 16 16 16 21 28 34 37 37 39 42 42 43 43 43 45 47 49 47 44 41 36 33 31 30 29 30 29 28 28 26 26 27 29 29 29 28 25 23 22 21 21 21 21 21 22 22 22 23 23 23 23 22 22
5 4 7 8 6 7 7 7 6 3 2 4 5 9 12 13 15 13 9 8 10 11 11 11 11 7 3 5 6 7 7 6 6 13 17 17 18 24 30 35 37 39 41 42 43 44 44 45 47 48 46 42 37 34 32 32 30 30 30 29 29 29 27 27 28 29 29 28 26 24 22 21 20 19 19 18 18 18 19 20 20 21 21 21 21 20
2 3 6 7 7 10 10 9 8 7 7 6 4 8 12 12 15 13 8 8 9 10 14 14 11 8 6 7 9 7 5 6 7 10 13 17 22 24 27 31 35 37 39 41 42 43 45 46 47 48 45 42 39 37 36 35 33 31 31 31 31 30 29 29 30 31 29 27 26 24 22 21 20 18 17 17 16 16 17 17 18 19 19 20 19 19
0 3 6 7 8 10 10 8 6 5 7 7 5 11 14 14 16 13 8 10 9 8 13 14 11 12 13 14 14 9 5 7 8 8 9 15 21 24 26 28 31 33 35 36 38 41 44 45 47 47 46 45 43 40 38 36 35 34 33 33 33 31 31 32 32 31 30 28 27 25 23 21 20 19 18 17 17 17 17 17 17 17 17 18 18 19
1 4 10 11 11 11 11 12 11 10 9 9 9 12 14 16 18 16 13 13 10 9 13 12 12 17 17 17 18 15 10 9 8 6 9 14 18 22 24 27 29 31 32 33 36 41 44 45 44 45 46 46 45 41 37 34 33 33 33 34 33 33 33 34 33 32 30 29 27 25 23 22 21 20 20 19 19 18 18 17 17 17 17 17 17 17
1 6 10 11 12 12 12 13 13 12 11 11 13 14 13 13 17 19 19 19 16 14 12 10 13 17 13 12 17 17 15 13 12 15 18 20 21 22 22 25 28 31 33 35 38 41 42 42 41 42 43 45 46 43 38 34 31 31 32 33 34 34 35 35 34 32 31 29 28 26 24 23 22 22 21 20 20 20 19 18 18 18 17 17 17 16
3 5 8 9 11 13 13 12 12 13 12 12 14 15 14 15 15 17 19 20 20 20 16 14 19 19 11 7 12 17 19 19 18 21 23 22 24 25 24 24 27 31 35 37 39 39 38 38 38 38 40 44 47 45 42 38 33 31 32 33 34 35 36 36 35 33 32 30 28 26 25 24 23 22 21 21 21 20 20 19 19 18 17 17 16 15
5 5 7 7 7 11 11 11 12 13 12 14 16 14 13 15 15 15 16 16 16 18 18 19 21 19 13 10 13 20 26 24 18 17 19 22 26 27 26 27 31 34 36 37 38 37 36 35 37 38 41 46 48 47 44 42 38 34 33 34 35 36 36 36 35 34 32 30 28 27 26 25 23 22 21 21 21 20 19 19 18 18 17 17 16 15
5 4 5 4 4 7 7 9 11 12 12 14 15 14 13 13 12 14 14 14 15 16 17 19 19 15 12 12 15 20 26 25 20 17 18 21 27 30 30 32 36 39 40 40 40 39 39 39 41 44 47 48 47 44 43 43 42 38 35 36 37 38 38 38 37 35 33 31 30 29 26 24 23 22 22 21 20 20 19 19 18 17 17 16 15 14
4 3 2 3 4 6 8 9 9 9 9 10 10 12 15 14 13 13 14 15 17 16 14 15 14 12 12 14 16 19 23 23 22 23 24 26 31 35 36 37 39 41 41 42 43 44 44 44 45 46 48 46 43 41 41 42 43 41 38 38 39 40 41 40 38 36 35 33 31 28 26 23 22 22 23 22 21 20 20 19 18 17 16 15 14 14
4 4 4 4 3 6 11 9 6 7 8 7 8 12 14 15 15 14 15 16 17 16 15 14 14 13 13 14 17 20 21 24 31 38 39 36 34 35 36 38 39 39 41 43 45 46 47 47 46 47 47 46 45 45 46 46 44 41 39 40 41 43 43 42 40 38 36 34 31 28 25 24 23 24 24 23 22 20 19 19 18 17 16 14 13 12
6 6 6 4 3 5 9 8 7 7 7 6 9 11 14 15 15 14 14 16 16 16 17 18 19 19 17 16 20 22 25 31 40 46 46 41 37 36 36 38 40 40 42 45 46 47 48 49 49 49 48 48 49 51 53 52 46 40 40 42 44 45 46 44 42 39 36 34 31 28 26 25 25 26 25 23 22 20 19 18 17 16 15 13 12 12
9 7 5 5 5 4 5 8 7 6 6 7 7 6 6 6 7 8 11 15 17 16 16 17 19 21 20 20 25 29 32 33 36 42 47 46 42 42 41 39 40 42 44 47 48 49 50 51 49 47 47 49 50 48 47 45 40 36 38 43 47 48 47 45 42 40 37 35 32 30 28 26 26 26 26 24 23 21 19 18 16 15 14 13 12 11
11 9 6 6 6 5 7 10 8 7 10 10 8 6 6 7 9 10 10 13 14 13 12 14 15 18 20 21 28 36 36 28 22 28 44 50 46 43 43 41 42 43 45 48 50 51 51 51 49 46 45 48 49 42 36 34 34 33 37 43 49 50 48 46 43 41 39 36 34 31 29 27 27 27 27 25 23 22 20 18 16 15 14 13 12 11
14 12 9 7 6 7 8 9 8 8 9 10 11 11 13 14 14 11 9 10 10 9 12 13 13 17 17 18 25 30 28 20 12 17 37 51 48 42 40 40 43 44 46 47 48 49 49 49 49 46 44 47 48 43 36 34 34 34 36 42 50 52 50 47 45 42 40 37 34 32 29 28 28 28 27 25 23 21 20 18 17 15 14 14 13 12
15 13 12 9 7 7 9 8 7 8 7 8 12 14 14 15 13 7 6 7 8 12 16 14 13 15 14 16 21 19 15 13 10 15 34 50 50 43 37 37 40 42 42 43 44 46 47 47 47 46 45 45 47 46 41 37 37 38 39 43 51 54 52 49 46 43 40 36 33 31 29 28 28 28 26 24 23 21 20 18 17 16 15 14 13 12
12 10 9 8 7 9 11 8 6 6 5 7 13 16 11 11 12 6 5 6 7 15 17 12 12 16 16 18 19 12 9 11 13 21 39 50 50 44 37 37 42 43 41 40 41 42 44 45 46 47 47 46 45 45 43 41 41 43 42 44 51 55 53 51 48 43 38 35 32 30 28 27 27 26 25 24 22 21 20 18 17 16 14 13 12 11
7 7 8 8 9 13 14 10 7 6 4 8 17 16 6 9 8 7 9 8 7 12 14 12 14 18 21 21 15 10 14 23 27 34 44 47 47 45 40 40 43 42 40 40 39 38 40 42 45 47 47 46 44 43 44 44 45 45 43 44 51 55 54 51 46 41 37 34 32 29 27 27 26 26 25 24 23 21 20 18 17 16 14 13 12 10
6 5 6 8 9 10 11 9 8 5 6 14 21 14 7 8 6 8 11 12 12 14 17 15 16 21 26 24 19 19 25 32 34 36 40 42 43 45 44 43 43 41 40 39 37 36 38 39 42 44 44 44 44 44 44 45 45 44 43 45 51 53 51 48 44 40 37 35 32 28 26 26 26 26 25 24 23 21 20 18 17 16 14 13 12 11
6 5 5 6 7 7 7 8 6 5 10 17 16 6 4 7 11 13 12 14 18 22 24 21 19 23 26 24 23 26 29 31 33 34 35 37 39 41 43 44 43 42 41 39 37 37 37 38 40 40 40 41 43 44 44 43 41 41 42 44 46 48 47 46 43 40 37 33 29 26 25 25 25 24 24 24 22 21 20 19 17 16 15 14 13 13
6 7 5 5 6 6 6 7 6 5 10 15 12 7 9 18 25 26 17 13 20 26 24 19 20 24 25 24 25 25 25 28 32 33 33 33 33 36 39 40 40 41 41 39 39 37 36 37 38 38 39 41 41 41 39 37 35 36 39 39 40 42 43 42 40 38 35 32 30 28 27 25 25 25 26 25 24 23 21 20 19 18 17 16 15 14
8 10 9 6 6 7 7 7 6 7 15 19 15 10 12 17 22 22 16 15 21 23 18 14 18 22 23 23 24 25 26 29 31 32 31 29 29 32 34 36 37 38 38 38 37 35 34 35 36 36 37 38 36 34 32 31 30 31 33 32 33 34 36 37 38 37 36 35 32 30 28 26 26 28 28 27 26 24 23 22 20 19 18 17 16 15
6 9 9 6 4 5 7 8 7 8 13 13 9 10 13 15 17 18 19 19 22 23 20 19 21 25 24 21 20 22 27 29 29 31 30 28 28 31 33 34 35 34 33 34 34 34 34 33 33 35 36 35 34 32 31 30 30 31 32 31 31 32 33 35 37 38 38 37 34 30 28 28 29 30 29 27 25 24 22 21 20 19 18 17 16 15
4 6 6 3 2 3 5 8 8 9 8 8 12 14 14 15 17 18 18 18 19 21 23 20 19 21 21 20 19 22 25 26 26 29 30 30 30 32 32 33 32 29 28 28 29 30 32 32 32 34 35 36 36 36 35 34 34 35 36 36 36 37 37 37 39 41 40 37 35 33 32 31 31 30 28 27 25 23 21 20 18 17 16 15 15 14
3 4 4 5 5 4 6 6 6 12 9 4 10 15 16 17 20 19 17 16 15 16 17 16 15 17 17 16 17 20 23 24 23 25 27 28 29 30 30 30 29 25 23 24 24 26 28 29 29 30 32 34 35 36 36 37 37 38 39 39 39 38 38 39 41 42 39 36 35 34 33 32 31 29 28 26 24 22 20 18 17 16 15 15 15 14
2 1 2 3 4 4 7 6 7 12 9 1 11 17 16 16 19 18 16 16 15 15 14 11 10 11 12 13 14 17 20 21 19 19 21 21 22 24 23 22 21 20 19 19 19 21 23 24 23 24 25 27 28 29 30 31 32 33 35 36 36 35 36 38 39 37 36 35 34 34 33 31 30 28 27 25 23 21 20 19 17 16 16 17 16 15
3 3 2 2 4 5 4 2 1 5 5 2 12 17 14 13 15 15 14 14 14 14 14 11 7 6 8 10 12 13 15 16 14 14 14 13 14 15 14 13 13 12 11 12 13 15 17 17 17 18 19 20 21 22 23 24 26 27 28 29 29 30 33 35 35 35 35 35 33 31 30 28 28 27 26 24 23 21 21 20 19 18 17 17 17 15
4 4 2 2 5 4 2 2 3 3 3 3 8 12 11 11 12 12 12 13 12 12 12 11 8 7 7 9 10 10 10 10 9 8 9 7 7 7 6 6 5 3 3 4 6 8 10 11 13 14 15 16 17 18 19 21 22 24 25 27 28 29 31 33 34 33 32 31 29 28 27 26 25 26 25 24 23 22 21 20 19 17 16 16 15 14
Wind_Direction
171 184 208 209 209 202 199 206 220 212 154 191 200 222 227 222 242 216 232 264 176 203 249 237 246 245 242 256 251 242 245 243 243 251 253 248 247 247 249 252 253 254 255 257 261 263 262 261 258 258 259 260 259 256 255 255 254 251 249 250 250 249 250 250 250 251 252 254 256 257 259 261 263 263 261 260 258 257 258 258 257 258 259 260 261 262
172 203 222 213 210 201 197 202 213 227 226 200 159 218 234 223 247 229 219 268 183 188 267 267 264 256 240 257 260 242 237 239 238 243 251 249 248 250 252 255 256 256 257 257 259 260 261 261 259 257 257 259 257 253 251 252 251 250 250 251 251 251 252 252 252 253 253 255 257 259 263 267 269 268 267 267 266 264 263 262 261 261 261 262 264 265
193 221 225 217 211 199 200 200 203 218 224 215 175 219 248 216 257 268 241 284 174 188 267 276 266 263 248 252 261 249 229 233 238 239 245 249 250 251 253 256 258 259 260 259 261 262 261 260 259 260 261 261 258 252 249 249 249 251 252 252 252 253 253 254 256 256 256 257 259 261 264 267 269 269 269 270 269 268 266 265 264 264 263 263 264 265
213 227 228 222 206 195 209 205 201 215 220 223 217 220 241 195 170 257 254 255 224 217 242 256 264 267 260 252 260 259 246 233 238 242 246 250 251 251 253 256 258 260 262 263 264 265 264 260 257 258 259 261 261 254 249 247 247 249 250 251 251 253 254 256 258 259 260 260 261 261 262 264 265 266 267 267 267 267 267 266 265 265 265 264 264 264
228 231 208 189 199 206 210 202 197 211 220 226 223 221 237 214 197 239 244 221 265 268 241 259 283 267 244 244 251 260 257 238 230 237 243 248 251 253 254 256 257 259 261 263 265 265 264 261 260 260 258 259 261 257 251 247 246 247 248 249 250 252 255 256 259 263 263 261 261 261 260 260 261 262 263 264 265 268 270 270 269 269 268 267 266 265
234 232 174 179 205 209 212 210 201 203 220 232 221 217 227 219 208 224 192 178 281 272 219 165 272 270 229 225 235 242 255 247 225 221 233 241 247 251 252 254 257 258 260 261 263 263 261 262 263 263 259 257 257 255 251 248 246 247 248 249 250 252 255 258 262 266 265 262 261 260 259 258 260 262 264 266 270 273 274 276 275 273 271 270 269 267
233 223 197 206 209 201 211 220 210 201 217 237 216 205 220 222 212 204 178 191 237 258 219 156 224 270 237 209 225 217 237 250 236 216 226 233 239 245 247 251 254 256 258 259 259 259 259 261 264 263 258 255 254 252 250 249 248 249 250 250 249 251 257 261 265 267 266 263 261 260 259 259 261 263 266 271 274 275 276 276 275 273 271 270 269 267
194 202 204 216 208 199 208 217 211 198 215 241 209 173 199 215 218 214 200 210 233 258 266 185 212 260 259 228 214 197 218 247 246 230 225 227 232 239 243 248 251 253 255 256 256 257 257 260 262 260 256 253 252 253 253 251 249 249 250 250 250 253 259 263 264 266 265 263 262 261 260 259 260 262 266 271 274 274 273 272 271 271 270 269 267 267
179 199 206 214 210 204 211 219 203 189 220 244 174 154 192 208 217 222 219 229 244 245 246 223 206 254 264 240 182 189 211 240 247 239 227 221 225 232 238 244 248 252 254 255 256 257 258 259 260 257 255 253 253 254 255 255 253 252 252 252 253 256 261 263 263 263 263 263 263 262 262 260 260 262 265 269 271 271 270 268 269 269 269 268 267 267
206 204 208 211 211 210 215 218 184 188 220 210 140 150 186 189 212 227 229 232 244 240 234 225 199 225 266 243 174 190 215 230 244 244 233 220 220 226 233 239 246 250 253 255 256 257 258 258 258 256 255 255 255 254 255 256 257 256 256 255 257 259 262 263 262 262 262 262 262 262 262 261 261 262 264 267 269 269 268 266 265 266 268 269 268 267
251 267 238 212 210 211 215 211 191 201 207 133 125 177 131 71 244 242 241 235 247 245 236 228 205 207 259 255 195 203 222 224 235 245 240 218 216 225 231 237 244 248 251 254 255 257 258 259 258 256 256 255 255 254 253 255 256 258 259 259 260 262 263 264 263 263 262 261 261 260 261 262 262 263 264 265 266 267 266 265 264 265 268 270 270 269
248 261 277 209 204 196 200 214 208 207 185 126 131 186 176 202 270 247 242 221 243 246 229 222 210 203 241 253 189 203 224 215 217 235 241 217 209 221 230 238 244 248 251 253 255 257 258 258 257 255 255 255 255 254 253 253 255 257 260 262 264 264 265 266 266 265 263 261 261 261 262 262 262 261 261 262 263 263 264 264 265 266 267 269 269 269
236 239 220 237 224 187 181 201 209 193 164 157 157 165 184 208 204 213 222 212 240 251 235 200 197 204 238 251 239 233 227 207 212 219 228 230 216 217 227 237 244 247 250 252 253 256 256 256 257 256 256 256 256 256 255 254 255 257 260 262 265 267 267 268 268 268 266 262 260 260 259 259 258 257 257 258 260 260 261 263 264 265 266 267 267 267
240 246 212 211 290 193 187 185 192 185 173 184 182 182 197 200 206 214 213 221 238 251 254 173 180 206 245 249 242 238 222 202 214 214 219 232 233 229 231 239 246 249 251 252 253 255 257 258 260 260 261 261 260 260 259 258 257 258 260 262 264 267 268 269 269 269 266 260 254 254 256 256 256 254 255 257 258 259 261 261 262 263 264 265 265 265
225 244 196 185 188 178 189 203 197 172 176 195 190 197 203 194 214 218 202 222 236 254 282 154 176 197 220 241 232 229 221 207 212 214 219 232 242 246 244 241 245 249 251 253 254 256 258 260 262 263 264 264 264 264 262 261 260 260 262 263 265 267 268 269 269 267 263 255 249 252 255 256 256 256 257 258 258 258 259 260 261 262 262 263 264 265
219 245 201 191 187 171 189 212 189 150 188 209 183 204 217 203 216 244 240 227 226 265 264 175 218 217 239 286 284 228 217 206 210 217 221 231 240 245 247 242 242 245 248 251 253 255 257 259 262 264 265 265 266 266 265 265 264 264 265 266 267 269 270 269 265 260 258 252 249 252 255 255 256 257 257 257 257 258 258 259 260 260 261 262 263 265
209 247 227 190 196 187 193 199 179 168 188 197 186 207 218 212 216 241 257 248 225 257 235 173 240 250 285 284 256 201 175 193 206 215 217 226 232 236 242 244 243 244 247 250 252 254 257 259 261 263 263 264 267 268 268 268 269 269 269 269 270 270 268 263 256 250 249 248 249 253 254 255 256 256 257 259 260 262 262 260 259 259 260 261 263 264
194 262 276 154 215 221 200 194 191 191 188 176 203 202 192 244 263 234 251 243 227 247 236 188 229 231 216 257 241 180 181 196 201 206 210 220 225 229 237 242 245 247 248 251 253 254 257 260 262 261 261 264 268 271 271 271 272 272 272 271 268 265 258 254 251 246 245 247 251 255 256 256 257 258 260 261 262 264 264 262 259 257 258 260 262 264
170 265 271 185 206 223 181 182 218 228 217 213 191 185 179 231 222 197 236 242 230 241 243 220 230 230 212 237 259 208 207 207 200 203 211 217 222 227 234 241 247 250 251 252 254 256 258 261 262 261 261 262 268 272 274 274 273 272 270 265 261 257 252 249 247 244 245 247 250 255 258 259 258 258 260 260 260 261 262 261 259 259 260 262 264 266
163 232 257 209 193 181 141 180 216 231 234 261 90 186 213 243 219 210 217 239 242 244 248 235 231 229 210 217 240 236 223 204 192 205 216 219 221 226 232 238 244 250 253 254 255 259 263 264 264 263 262 262 265 271 275 274 271 266 261 256 255 253 249 245 244 242 243 243 246 254 259 258 256 255 257 257 257 257 258 259 260 261 263 265 267 269
181 202 241 262 193 166 161 197 204 209 209 202 204 209 214 221 243 256 228 226 247 244 247 249 239 234 208 190 223 237 234 201 187 204 216 219 223 226 230 234 240 247 253 256 258 262 265 267 268 267 264 262 263 269 273 271 264 256 250 251 251 248 246 245 244 243 242 243 247 255 260 258 254 253 253 253 253 254 255 257 258 261 264 266 267 269
187 196 226 245 255 214 213 207 207 215 211 201 206 211 215 213 217 251 236 216 235 238 240 255 256 250 231 206 218 231 236 210 194 205 212 213 220 226 231 234 238 244 251 257 261 263 265 267 269 269 267 264 264 267 269 266 259 250 245 246 245 244 246 246 245 244 244 246 251 256 257 255 251 248 248 249 250 252 253 255 258 260 261 262 263 264
194 208 229 237 245 235 236 227 202 218 233 226 220 212 217 216 210 228 235 222 228 231 229 251 259 250 209 221 222 225 236 222 203 209 216 215 218 225 233 237 239 244 249 256 260 263 265 266 267 268 268 266 266 267 264 262 260 253 245 243 242 244 246 246 246 248 248 251 252 253 251 246 242 242 243 245 248 250 253 254 256 256 255 255 256 259
195 206 228 240 259 251 252 268 282 70 69 249 234 217 216 216 213 224 235 237 241 233 224 248 255 238 199 225 232 232 244 242 217 218 225 227 224 228 236 240 242 245 249 254 258 260 263 265 266 266 267 267 267 265 262 261 260 253 245 242 242 243 245 245 247 250 250 251 249 244 238 233 233 235 236 240 243 246 249 250 250 251 251 252 255 257
200 198 207 224 255 255 252 261 253 228 193 222 227 224 227 223 222 229 236 247 252 238 230 244 250 238 235 256 248 243 257 271 247 230 231 234 234 232 235 240 244 246 249 252 255 258 261 263 265 266 266 267 266 264 263 262 260 251 244 243 242 242 242 243 246 249 248 245 238 231 228 228 230 232 235 239 242 245 248 249 250 252 253 256 258 258
221 219 209 211 222 232 235 232 232 235 231 224 207 223 234 232 230 235 235 233 238 232 230 240 248 249 265 276 267 266 283 283 263 244 234 234 237 239 239 241 245 249 252 254 256 258 260 261 264 266 267 265 264 263 264 264 261 253 246 243 242 241 241 243 246 245 240 233 226 224 225 228 232 235 240 244 247 250 252 253 254 255 256 257 258 259
208 248 240 240 234 241 254 259 278 300 262 244 219 214 220 224 227 233 237 233 237 243 239 236 241 251 255 259 260 260 259 258 257 251 236 230 235 240 243 245 248 250 254 258 260 261 261 261 262 266 268 268 266 266 267 266 261 254 247 243 242 241 242 244 243 237 229 223 221 223 226 230 234 238 242 246 249 252 253 254 255 256 257 259 260 260
130 248 247 256 255 262 280 286 301 315 295 279 267 239 225 219 218 223 234 238 239 249 247 235 231 241 243 245 253 257 253 253 256 254 248 245 243 243 244 247 249 250 253 258 260 260 260 260 262 265 268 270 270 270 269 267 260 251 245 243 242 242 242 241 235 226 221 220 222 226 229 233 237 240 245 248 250 252 253 253 254 255 256 259 260 263
175 248 248 257 259 257 260 267 278 288 285 282 279 273 262 240 223 223 232 237 233 239 251 253 247 249 247 246 254 256 253 253 255 256 259 261 260 257 252 250 250 252 255 257 257 257 259 261 263 264 267 270 271 271 271 268 257 246 241 240 241 241 239 233 226 220 220 223 226 229 232 236 240 243 246 250 251 253 254 254 255 256 257 259 261 264
189 240 248 252 260 256 246 245 254 259 265 270 272 274 276 267 250 238 238 239 239 243 250 255 257 258 253 248 260 264 264 263 260 258 256 255 257 260 259 256 256 256 257 257 256 257 259 262 263 264 266 267 267 268 270 268 258 246 242 241 238 236 231 225 220 220 223 226 229 231 234 236 239 242 245 248 250 252 253 254 254 255 256 258 260 262
200 229 245 239 252 259 246 235 236 237 244 259 265 269 273 275 274 264 255 251 251 252 251 249 253 256 247 237 253 267 271 270 263 254 247 246 251 254 254 255 257 258 259 259 261 261 262 264 265 264 264 264 265 266 267 268 263 252 244 241 236 231 225 221 220 223 226 228 230 231 232 234 237 241 244 247 249 251 252 253 254 255 256 256 257 259
204 231 251 234 245 259 242 226 232 237 242 250 256 261 263 266 267 264 258 251 250 254 253 249 249 252 247 240 244 254 259 259 256 250 244 244 246 245 244 246 249 253 256 259 263 265 266 265 265 264 263 264 265 265 265 266 263 254 245 239 233 227 222 220 222 226 227 227 228 229 231 234 238 241 243 245 248 250 252 254 255 255 256 256 256 258
200 204 224 218 238 266 255 233 230 240 246 244 241 240 244 248 251 254 256 252 248 249 251 250 249 249 247 242 239 241 246 250 253 251 245 241 242 242 241 242 245 248 252 256 260 263 263 264 263 264 266 269 269 269 269 268 264 257 250 241 231 224 221 221 223 225 225 225 227 229 231 235 237 238 239 239 241 244 247 250 251 252 252 252 252 253
206 200 226 227 227 266 268 261 248 242 245 249 234 219 222 234 243 245 250 250 246 244 248 253 256 254 248 243 240 240 241 245 251 252 249 245 243 244 244 244 245 247 250 253 257 259 260 262 262 264 268 272 273 274 274 272 268 262 253 240 229 223 221 222 223 223 223 224 226 228 230 232 234 236 236 235 235 237 240 242 243 245 245 246 246 246
223 216 229 236 225 252 268 271 258 242 240 247 241 221 214 224 234 239 249 252 250 248 249 253 256 254 249 246 246 247 247 247 251 255 256 253 249 249 248 246 246 246 246 249 252 255 257 259 261 264 266 266 268 270 272 271 269 263 251 237 227 223 223 223 222 222 222 224 225 226 228 229 232 234 233 232 231 232 234 236 237 239 240 240 240 240
225 228 230 236 233 240 256 250 246 265 281 269 258 238 216 217 222 235 252 253 247 244 244 246 252 253 252 250 250 252 253 253 254 257 258 257 254 251 249 248 247 246 246 248 250 252 256 258 259 262 264 264 264 267 268 267 263 257 248 236 226 223 224 223 221 221 221 222 223 225 226 226 228 231 232 230 228 227 229 231 233 233 234 233 233 233
219 227 232 234 226 221 242 249 257 287 288 274 261 237 221 226 224 222 241 252 244 234 232 237 245 250 251 250 249 251 253 255 256 257 258 259 258 255 254 254 253 252 251 252 253 254 256 258 258 258 260 262 264 266 266 265 260 253 245 235 226 224 224 223 221 221 221 222 223 223 223 222 225 229 230 227 224 223 223 225 227 228 228 227 227 229
216 221 225 229 223 217 235 254 264 266 261 257 252 236 223 227 229 220 231 253 251 232 223 223 235 244 248 249 248 248 250 252 254 257 259 261 262 261 260 260 259 258 256 255 256 256 256 258 258 257 257 260 264 268 267 266 264 257 248 237 228 224 224 223 221 221 221 221 222 221 220 221 224 227 227 225 222 220 219 219 221 223 225 227 229 232
216 219 224 228 230 226 229 239 246 247 248 249 256 256 238 219 208 199 219 237 243 244 237 227 232 242 245 248 247 243 244 249 252 254 257 261 264 264 263 264 264 262 259 257 256 256 258 259 260 260 259 259 263 267 267 267 266 262 256 244 231 224 224 224 222 221 221 220 220 220 220 222 225 226 225 223 220 218 216 216 218 221 226 230 232 235
217 215 220 225 227 229 232 237 241 246 248 241 252 264 249 195 175 182 232 233 236 246 240 221 225 239 242 247 248 240 233 238 242 251 255 259 264 266 265 266 266 265 263 261 258 258 258 258 258 259 259 258 259 261 264 266 265 262 257 245 231 225 224 225 223 221 220 219 219 220 221 223 224 223 222 221 219 216 214 214 217 221 226 230 232 234
214 209 217 223 226 228 231 237 244 245 243 246 255 259 221 161 170 211 234 243 254 257 248 223 221 237 244 246 246 237 238 242 244 251 256 260 265 268 268 268 269 269 269 268 266 263 260 256 255 256 258 259 257 257 258 260 260 259 254 242 231 225 224 224 222 220 218 218 218 219 221 222 222 221 221 221 218 216 214 214 218 223 227 231 232 228
202 206 217 217 225 232 232 236 248 255 235 240 253 254 182 170 230 239 236 258 277 278 272 255 237 242 247 246 243 242 248 252 250 251 257 263 268 271 271 270 269 271 271 270 268 265 260 256 253 254 256 258 257 257 256 255 255 253 248 238 230 226 224 222 220 218 218 217 216 217 219 220 219 219 220 220 218 217 216 216 220 224 227 228 225 217
188 198 217 212 218 230 233 232 236 249 235 231 243 262 143 191 250 251 245 264 273 271 272 264 248 248 250 247 244 245 251 258 258 256 259 267 273 276 275 273 272 272 273 272 269 265 261 258 256 255 255 255 255 255 254 251 249 245 239 234 230 225 222 220 218 217 217 217 219 221 219 218 217 219 221 222 222 220 220 220 221 223 225 222 217 214
184 200 219 210 204 209 225 229 217 233 244 229 219 220 206 216 237 247 249 260 267 268 271 266 255 254 254 251 251 252 256 264 267 264 263 268 276 280 281 281 280 278 276 274 271 268 265 262 261 259 256 253 251 250 248 244 239 234 231 230 227 223 220 219 217 216 217 221 224 222 216 215 220 223 223 223 223 221 220 221 222 221 220 217 216 220
195 204 217 219 214 209 220 232 221 233 248 241 233 248 256 245 251 266 280 280 273 276 288 294 287 283 278 269 264 263 264 267 268 265 263 270 280 285 288 288 287 285 283 277 272 268 264 261 260 257 253 248 244 240 236 230 226 224 223 222 221 219 219 219 217 218 221 222 218 213 213 220 225 223 222 222 222 221 220 220 219 217 215 216 219 226
225 219 223 229 244 251 256 264 263 256 261 269 294 329 325 311 310 322 326 311 297 298 306 308 301 296 294 290 283 275 271 270 270 269 270 276 283 286 288 289 290 290 288 282 274 267 263 260 256 251 247 242 235 230 226 224 224 226 227 226 223 220 221 223 223 223 221 217 213 215 223 226 221 217 218 220 220 219 218 217 217 216 217 219 223 227
260 226 221 230 262 271 261 255 257 267 290 344 358 348 333 323 324 333 335 324 311 305 305 304 300 297 297 296 290 282 278 276 276 277 279 283 286 286 287 289 292 293 290 284 276 268 262 259 255 250 245 240 235 231 230 231 232 233 234 234 230 226 226 228 226 221 216 216 220 224 223 217 212 212 215 216 216 217 217 217 218 220 223 225 227 228
234 184 195 220 213 225 255 261 295 303 301 39 30 359 347 337 330 335 341 333 318 305 303 305 306 306 308 305 295 287 284 285 287 288 288 290 292 292 292 293 294 293 288 283 277 269 262 259 256 251 246 242 239 237 237 237 236 235 235 234 233 229 226 224 222 218 218 220 221 216 208 203 205 210 214 216 218 219 219 221 223 224 226 228 229 230
283 132 166 212 213 246 274 284 325 312 287 96 35 9 3 351 338 336 338 332 325 317 312 315 317 315 314 311 304 298 298 302 305 302 298 297 296 295 296 296 295 292 285 279 273 266 260 257 255 250 245 242 240 239 238 237 235 232 230 229 229 227 222 218 216 214 214 212 207 202 200 201 205 210 214 218 219 219 221 224 224 224 225 228 229 231
261 260 187 219 253 264 272 265 326 301 275 347 9 2 5 5 352 346 343 342 344 341 337 341 346 333 324 323 318 311 311 317 319 311 306 304 302 300 300 298 296 292 283 274 266 260 254 250 246 242 236 232 231 231 230 228 225 222 220 217 217 215 213 210 206 202 199 197 196 198 203 206 209 213 216 218 218 219 222 223 222 221 222 227 232 237
238 257 197 225 257 258 256 232 228 257 282 350 5 4 11 14 10 11 14 13 13 8 3 5 7 4 0 355 348 339 334 336 335 322 316 318 321 317 310 301 299 296 270 252 241 234 227 219 217 217 211 207 207 207 207 206 204 201 199 197 195 196 198 198 195 192 191 193 197 202 206 210 212 214 216 217 219 221 222 222 223 223 222 226 234 241